Вернуться в каталог

STARLINK-34343

АктивенСвязьSSO
NORAD 64157·PAYLOAD·🇺🇸 United States

Запущен May 27, 2025 с Vandenberg Space Force Base

Loading…

Ближайшие Пролёты (ближайшие 24 часа)

TLE

СвежийSource: CelesTrak SupGP

Эпоха: Sep 15, 2026, 02:49 UTC

1 64157C 25112M   26258.11784722  .00048964  00000+0  32046-2 0  2584
2 64157  97.6010 308.1628 0013760 331.7145  88.7442 15.07741399    17

Отслеживайте STARLINK-34343 в реальном времени с AllMySat

Download on the App Store